Snowfall_Accumulation
0.0 0.0 0.0 0.0 0.0 0.0 0.0 0.0 0.0 0.0 0.0 0.0 0.0 0.0 0.0 0.0 0.0 0.0 0.0 0.0 0.0 0.0 0.0 0.0 0.0 0.0 0.0 0.0 0.0 0.0 0.0 0.0 0.0 0.0 0.0 0.0 0.0 0.0 0.0 0.0 0.0 0.0 0.0
0.0 0.0 0.0 0.0 0.0 0.0 0.0 0.0 0.0 0.0 0.0 0.0 0.0 0.0 0.0 0.0 0.0 0.0 0.0 0.0 0.0 0.0 0.0 0.0 0.0 0.0 0.0 0.0 0.0 0.0 0.0 0.0 0.0 0.0 0.0 0.0 0.0 0.0 0.0 0.0 0.0 0.0 0.0
0.0 0.0 0.0 0.0 0.0 0.0 0.0 0.0 0.0 0.0 0.0 0.0 0.0 0.0 0.0 0.0 0.0 0.0 0.0 0.0 0.0 0.0 0.0 0.0 0.0 0.0 0.0 0.0 0.0 0.0 0.0 0.0 0.0 0.0 0.0 0.0 0.0 0.0 0.0 0.0 0.0 0.0 0.0
0.0 0.0 0.0 0.0 0.0 0.0 0.0 0.0 0.0 0.0 0.0 0.0 0.0 0.0 0.0 0.0 0.0 0.0 0.0 0.0 0.0 0.0 0.0 0.0 0.0 0.0 0.0 0.0 0.0 0.0 0.0 0.0 0.0 0.0 0.0 0.0 0.0 0.0 0.0 0.0 0.0 0.0 0.0
0.0 0.0 0.0 0.0 0.0 0.0 0.0 0.0 0.0 0.0 0.0 0.0 0.0 0.0 0.0 0.0 0.0 0.0 0.0 0.0 0.0 0.0 0.0 0.0 0.0 0.0 0.0 0.0 0.0 0.0 0.0 0.0 0.0 0.0 0.0 0.0 0.0 0.0 0.2 0.2 0.0 0.0 0.0
0.0 0.0 0.0 0.0 0.0 0.0 0.0 0.0 0.0 0.0 0.0 0.0 0.0 0.0 0.0 0.0 0.0 0.0 0.0 0.0 0.0 0.0 0.0 0.0 0.0 0.0 0.0 0.0 0.0 0.0 0.0 0.0 0.0 0.0 0.0 0.0 0.3 0.1 0.4 0.3 0.0 0.0 0.0
0.4 0.5 0.0 0.0 0.0 0.0 0.0 0.0 0.0 0.0 0.0 0.0 0.0 0.0 0.0 0.0 0.0 0.0 0.0 0.0 0.0 0.0 0.0 0.0 0.0 0.0 0.0 0.0 0.0 0.0 0.0 0.0 0.0 0.0 0.0 0.0 0.1 0.2 0.2 0.7 0.2 0.4 0.0
1.0 1.1 0.0 0.0 0.0 0.0 0.0 0.0 0.0 0.0 0.0 0.0 0.0 0.0 0.0 0.0 0.0 0.0 0.0 0.0 0.0 0.0 0.0 0.0 0.0 0.0 0.0 0.0 0.0 0.0 0.0 0.0 0.0 0.0 0.0 2.0 0.0 0.1 0.2 2.2 4.5 5.1 0.0
2.2 2.2 0.1 1.1 1.1 1.0 0.5 0.1 0.1 0.0 0.0 0.0 0.0 0.0 0.0 0.0 0.0 0.0 0.0 0.0 0.1 0.0 0.0 0.0 0.0 0.0 0.0 0.0 0.0 0.0 0.0 0.0 0.0 0.0 0.0 0.0 0.0 0.0 0.0 0.3 0.8 5.0 5.2
2.6 3.1 4.3 4.1 2.2 2.1 1.0 0.1 0.1 0.1 0.1 0.2 0.0 0.0 0.0 0.0 0.0 0.0 0.0 0.0 0.0 0.1 0.1 0.0 0.0 0.0 0.0 0.0 0.0 0.0 0.0 0.0 0.0 0.0 0.0 0.0 0.0 0.0 0.1 0.2 0.4 0.8 2.6
4.5 5.0 8.8 7.4 5.6 4.9 3.8 2.4 2.2 1.9 0.8 0.7 0.1 0.1 0.2 0.0 0.0 0.0 0.0 0.0 0.0 0.0 0.0 0.0 0.0 0.0 0.0 0.0 0.0 0.0 0.0 0.0 0.0 0.0 0.0 0.0 0.0 0.0 0.1 0.2 0.3 0.4 0.8
7.0 4.9 3.6 5.3 10.8 10.1 6.0 4.9 3.4 3.4 3.8 2.8 2.3 2.3 2.9 1.6 1.7 1.6 0.3 0.1 0.0 0.3 0.1 0.0 0.0 0.0 0.0 0.0 0.0 0.0 0.0 0.0 0.1 0.0 0.1 0.1 0.0 0.0 0.0 0.2 0.2 0.2 0.3
8.7 10.1 8.9 7.6 5.8 7.8 8.6 6.7 5.0 4.3 6.0 4.7 3.8 3.3 2.8 1.7 1.7 2.4 2.9 0.0 1.0 0.0 1.3 0.6 0.4 0.3 0.4 0.1 0.0 0.0 0.0 0.1 0.2 0.2 0.3 0.2 0.0 0.1 0.0 0.1 0.3 0.3 0.3
6.8 8.5 8.1 10.8 11.1 6.5 6.2 5.4 4.1 9.5 8.5 5.7 5.2 5.2 5.0 3.4 2.2 1.9 2.3 1.6 3.0 3.1 3.9 3.7 2.3 2.2 1.0 0.8 0.1 0.1 0.1 0.1 0.2 0.2 0.3 0.4 0.5 0.8 0.5 0.2 0.3 0.3 0.2
5.2 6.3 7.4 5.6 6.7 7.6 5.1 5.3 5.4 4.0 5.6 5.8 4.5 3.7 4.3 5.8 3.7 2.8 3.4 4.2 3.7 3.1 2.9 2.5 2.4 3.8 3.5 3.3 2.3 1.4 1.3 1.6 0.7 0.7 0.5 0.8 0.9 0.7 0.7 0.6 0.5 0.3 0.2
4.9 2.3 1.6 2.1 1.2 0.7 1.0 1.4 0.9 1.1 0.8 1.8 1.6 2.7 0.8 2.7 3.1 1.7 1.9 1.7 1.6 2.1 3.2 3.8 2.8 6.0 6.2 5.0 4.6 3.1 2.6 2.0 1.9 2.0 1.6 1.3 0.6 0.7 0.3 0.5 0.5 0.5 1.2
2.3 1.5 0.5 0.8 0.4 0.1 0.1 0.0 0.1 0.0 0.0 0.2 0.4 0.1 0.0 0.0 0.0 0.7 1.0 0.0 0.4 0.8 5.2 6.9 8.0 2.9 5.5 5.1 5.0 5.5 3.7 3.6 3.1 2.8 2.3 2.1 2.9 1.9 0.9 0.9 0.8 0.6 0.5
0.2 0.1 0.4 0.2 0.1 0.0 0.0 0.0 0.0 0.0 0.0 0.0 0.0 0.0 0.2 0.0 0.0 0.0 0.0 0.0 0.0 0.0 0.0 0.6 0.1 1.4 2.0 3.1 8.2 4.3 10.1 6.4 4.2 3.1 3.0 3.1 3.3 2.5 2.6 3.3 3.3 1.9 1.4
0.1 0.1 0.1 0.1 0.1 0.1 0.0 0.0 0.0 0.0 0.0 0.1 0.1 0.0 0.1 0.0 0.0 0.0 0.0 0.0 0.9 0.0 0.9 0.4 0.2 0.1 0.6 0.2 0.1 1.1 2.1 1.4 2.2 3.9 3.6 3.1 3.4 3.4 4.6 3.9 4.6 4.5 4.8
0.0 0.0 0.0 0.0 3.8 4.0 4.8 6.4 0.0 0.0 0.2 0.3 0.2 0.0 0.1 0.0 0.0 0.0 0.0 0.5 0.4 0.8 2.7 4.4 0.2 1.0 2.4 1.1 0.2 0.1 0.2 0.6 1.1 1.5 1.7 3.2 4.0 3.5 2.3 5.4 5.7 7.0 4.5
0.4 0.1 0.1 0.5 1.8 3.5 5.5 8.6 10.2 9.0 4.3 3.5 2.4 0.0 0.0 0.2 0.0 0.0 0.0 0.3 1.0 2.1 4.2 3.8 0.9 1.7 2.3 3.1 2.4 0.0 0.1 1.5 1.7 0.8 0.8 1.0 2.7 2.0 1.7 2.0 3.2 4.3 4.6
1.3 1.1 0.7 0.6 1.7 2.7 6.3 8.6 9.9 10.7 11.0 8.0 8.2 3.0 0.0 1.6 0.2 0.0 0.1 0.6 1.2 2.3 3.2 3.7 3.3 4.1 2.5 1.7 0.8 2.5 1.6 1.0 2.9 1.8 2.0 2.5 0.9 1.3 0.5 1.0 3.5 4.6 5.5
4.1 2.2 2.0 1.4 1.1 1.9 3.3 5.8 8.0 8.7 10.5 7.3 9.4 4.6 6.0 2.0 2.3 0.1 0.5 0.8 0.8 1.3 0.8 2.1 1.9 2.5 3.0 2.4 2.6 1.8 1.7 1.8 2.5 3.1 3.6 2.4 4.6 3.5 5.9 6.7 12.0 10.8 15.3
3.5 2.8 2.6 2.2 1.6 1.9 1.6 1.9 2.2 3.0 4.8 5.8 6.3 8.7 6.0 8.3 9.7 4.0 5.6 2.4 2.9 1.2 1.5 1.1 3.7 1.0 1.2 1.7 2.3 3.9 2.8 4.0 4.8 10.0 16.7 16.9 22.7 21.0 22.1 21.8 20.3 18.8 17.8
2.3 3.2 2.5 2.4 2.9 2.4 1.3 1.0 0.7 1.2 1.8 2.4 2.5 3.4 5.4 7.8 8.8 12.9 16.7 16.7 17.2 5.9 6.7 7.9 4.4 5.8 6.6 5.3 13.3 17.1 11.1 19.6 15.8 15.2 22.5 21.2 18.1 15.4 13.2 10.9 9.1 7.7 6.6
2.9 3.0 1.0 0.9 0.7 0.7 0.5 0.4 0.4 0.4 0.2 1.0 1.3 2.2 2.7 3.9 5.5 8.2 11.2 14.4 18.5 20.1 24.3 19.6 23.6 26.1 23.0 24.4 20.1 20.0 21.0 18.1 17.6 15.5 12.9 11.2 9.8 7.8 6.1 7.0 4.3 4.3 4.9